STARLINK-1267, 45384

Orbit data source: Space-Track

STARLINK-1267, 45384 is a payload satellite owned by SpaceX/Seattle (US) in LEO that was launched on Wed, 18 Mar 2020 UTC via an FALCON 9 launch vehicle from the Air Force Eastern Test Range (AFETR). Payload-class satellites include a variety of spacecraft equipped with specific instruments for various scientific and technological missions. These include communications satellites like Starlink; space stations such as the ISS; scientific satellites like the Hubble; Earth observation satellites from companies like Planet Labs, Umbra, and HawkEye 360; GPS; miniature CubeSats for education and research; and military/defense satellites.

Loading next visibility...
Identifier
45384, 2020-019AA
Orbit
LEO
Last TLE update
16 hours ago
Origin
Manufacturer
SpaceX/Seattle
Mission
Operational Commercial Communications
Bus & Motor
STARLINK, Unknown motor
Mass
260 kg wet, ~248 kg dry
Launch date (UTC)
2020-03-18 (5 years ago)
Launch vehicle
FALCON 9
Launch site
Air Force Eastern Test Range (AFETR)
Object type
Payload
Rocket body
Debris
Shape & HBR
Box + 1 Pan, 8.86 m
Radar Cross Section
13.562 m², Large (>1 m²)

Expand to show TLE details & history

TLE from 16 hours ago
0 STARLINK-1267
1 45384U 20019AA  25186.39326169  .00003311  00000-0  24106-3 0  9991
2 45384  53.0529 177.4322 0001279  75.3670 284.7461 15.06403340292723
Epoch: 2025-07-05T09:26Z
TLE epoch observation values (Epoch: 2025-07-05T09:26:17.81Z)
Latitude
0.00002°
Longitude
112.22606°
Altitude
547.855 km
Speed
7.589 km/s
True Right ascension
11h 49m 43s
True Declination
0° 00' 00"
Sunlit
Object was in daylight at epoch
Visualization orbit readout
Latitude
30.58568°
Longitude
135.45241°
Altitude
548.27 km
Speed
7.592 km/s
Apparent Right ascension
12h 54m 29s
Apparent Declination
-27° 39' 45"
Sunlit
Object is in daylight
Visualization observer readout
Local Sidereal Time
13:28:48
Azimuth
188.192° SSW
Elevation
21.951°
Doppler factor
1
Orbital elements
Apogee altitude
548.358 km
Perigee altitude
546.587 km
Semi-major axis
6,925.609 km
Eccentricity
0.00013
Inclination
53.0529°
RAAN
177.4322°
Arg. of periapsis
75.367°
True anomaly
Unknown
Mean anomaly
284.7461°
Eccentric anomaly
Unknown
Mean motion
3.76579 °/min
Orbital period
95.6 mins
BSTAR
0.00024106
Loading maneuver chart data...
Loading SW <> Apogee altitude chart data...
Loading historical data...
Loading historical data...
Loading historical data...
Loading historical data...
Loading historical data...
Loading historical data...
Loading historical data...

STARLINK-1267 Visibility forecast

Observer location: undefined°, undefined°

Span
Click to sort rows by Start time (UTC) header in descending order
Start Az.
Max El. time (UTC)
Max El. Az.
Max El.
End time (UTC)
End Az.
5 mins2025-07-06 01:32:07.019Z188.116° SSW2025-07-06 01:34:07.019Z138.501° SSE31.73°2025-07-06 01:37:07.019Z70.502° E
6 mins2025-07-06 03:11:07.019Z272.037° WNW2025-07-06 03:14:07.019Z340.31° N28.816°2025-07-06 03:17:07.019Z33.422° NE
6 mins2025-07-06 08:13:07.019Z329.939° NNW2025-07-06 08:16:07.019Z52.975° ENE32.791°2025-07-06 08:19:07.019Z102.835° ESE
5 mins2025-07-06 09:53:07.019Z272.143° WNW2025-07-06 09:55:07.019Z226.617° WSW25.428°2025-07-06 09:58:07.019Z172.902° S
6 mins2025-07-07 01:25:07.019Z206.663° SW2025-07-07 01:28:07.019Z121.265° SE38.246°2025-07-07 01:31:07.019Z61.496° ENE
|